Location: Newark
(42.8481°N, 0.4872°E)
Time: 02:38:00
(UTC+00:00)

Transit 2A Rocket - Pass Details

Date: 03 November 2020
Orbit: 588 x 914 km, 66.7° (Epoch: 26 November)

Event Time Altitude Azimuth Distance (km) Brightness Sun altitude
Rises 16:55:37 0° 328° (NNW) 3,254 8.4 -2.2°
Reaches altitude 10° 16:58:08 10° 328° (NNW) 2,269 7.6 -2.7°
Maximum altitude 17:03:17 86° 241° (WSW) 701 4.9 -3.6°
Drops below altitude 10° 17:07:56 10° 152° (SSE) 2,051 7.1 -4.4°
Sets 17:10:07 0° 152° (SSE) 2,918 7.9 -4.8°
